DD5ASA Weather Reports


Display with metric or nautical units.
time (UTC)temp
F
wind
direction
speed
MPH
gust
MPH
rain 1hr
in
rain 24hr
in
rain mn
in
humidity
%
barometer
mb
20260507044022 51 163 1.0 2.0 0.04 0.25 0.25 85 1009.9
20260507043027 51 162 0.0 2.0 0.04 0.25 0.25 81 1009.9
20260507042055 51 0.0 0.0 0.04 0.25 0.25 81 1009.9
20260507041022 51 28 0.0 1.0 0.04 0.25 0.25 81 1009.9
20260507040100 51 0.0 0.0 0.00 0.20 0.19 83 1009.9
20260507035047 51 225 0.0 1.0 0.00 0.20 0.19 83 1009.9
20260507034017 51 0.0 0.0 0.00 0.20 0.19 84 1009.3
20260507033103 51 135 0.0 1.0 0.00 0.20 0.19 81 1008.9
20260507032036 51 354 1.0 2.0 0.00 0.20 0.19 81 1008.9
20260507031038 51 11 1.0 2.0 0.00 0.20 0.19 83 1008.9
20260507025050 51 272 1.0 2.0 0.00 0.20 0.19 85 1008.9
20260507024034 51 183 1.0 2.0 0.04 0.20 0.19 83 1008.9
20260507023031 51 29 1.0 2.0 0.04 0.20 0.19 83 1008.9
20260507022015 51 276 0.0 1.0 0.04 0.20 0.19 84 1008.9
20260507021116 51 280 0.0 1.0 0.00 0.17 0.16 80 1008.9
20260507020043 51 277 1.0 2.0 0.00 0.17 0.16 83 1008.9
20260507015037 51 238 1.0 2.0 0.00 0.17 0.16 84 1008.9
20260507014017 51 355 3.0 6.0 0.00 0.17 0.16 81 1008.2
20260507013056 51 20 4.0 6.0 0.00 0.17 0.16 78 1007.8
20260507012017 51 38 4.0 5.0 0.00 0.17 0.16 77 1007.8
20260507011057 52 45 4.0 7.0 0.00 0.17 0.16 76 1008.9
20260507010023 52 9 4.0 5.0 0.00 0.17 0.16 75 1008.9
20260507005101 52 34 3.0 4.0 0.00 0.17 0.16 75 1008.9
20260507004026 53 48 3.0 5.0 0.13 0.17 0.16 75 1008.9
20260507003027 53 37 4.0 6.0 0.08 0.12 0.11 77 1008.9
20260507002050 54 278 4.0 6.0 0.04 0.08 0.07 82 1008.9
20260507001114 55 243 2.0 2.0 0.04 0.08 0.07 80 1008.2
20260507000015 55 355 0.0 2.0 0.00 0.04 0.03 77 1007.8
20260506235037 55 0.0 0.0 0.00 0.04 0.03 79 1007.8
20260506234044 56 0.0 0.0 0.00 0.00 0.00 75 1007.8
20260506232515 55 175 1.0 2.0 0.00 0.00 0.00 79 1007.8
20260506231517 56 0.0 0.0 0.00 0.00 0.00 75 1007.8
20260506230539 55 126 1.0 4.0 0.00 0.00 0.00 79 1007.8
20260506225523 56 25 3.0 6.0 0.00 0.00 0.00 73 1007.8
20260506224515 56 66 1.0 3.0 0.00 0.17 0.00 75 1007.8
20260506223525 56 20 1.0 2.0 0.00 0.17 0.00 75 1007.8
20260506222545 56 62 1.0 2.0 0.00 0.17 0.00 76 1007.8
20260506221534 56 51 2.0 3.0 0.00 0.17 0.00 73 1007.8
20260506220534 57 14 1.0 3.0 0.00 0.17 0.00 75 1007.8
20260506215547 57 10 1.0 3.0 0.00 0.17 0.29 76 1007.8
20260506214537 57 268 1.0 4.0 0.00 0.34 0.29 77 1007.8
20260506213523 57 23 3.0 5.0 0.00 0.34 0.29 74 1007.8
20260506212545 57 43 3.0 4.0 0.00 0.34 0.29 73 1007.8
20260506211517 57 37 2.0 2.0 0.00 0.34 0.29 74 1007.8
20260506210557 57 64 3.0 5.0 0.00 0.34 0.29 73 1006.8
20260506205602 57 43 4.0 6.0 0.00 0.34 0.29 74 1006.8
20260506204528 57 13 4.0 7.0 0.00 0.34 0.29 73 1006.8
20260506203523 58 27 4.0 6.0 0.00 0.34 0.29 72 1006.8
20260506202540 58 55 6.0 10.0 0.00 0.34 0.29 71 1006.8
20260506201607 58 46 6.0 9.0 0.00 0.34 0.29 70 1006.8
20260506200523 58 34 6.0 10.0 0.00 0.34 0.29 70 1006.8
20260506195515 59 13 2.0 2.0 0.00 0.34 0.29 70 1006.8
20260506194523 59 24 3.0 6.0 0.00 0.34 0.29 71 1006.8
20260506193520 59 37 5.0 6.0 0.00 0.34 0.29 69 1006.8
20260506192524 59 48 5.0 10.0 0.00 0.34 0.29 68 1006.8
20260506191531 59 41 5.0 6.0 0.00 0.34 0.29 67 1006.8
20260506190547 59 48 4.0 6.0 0.00 0.34 0.29 66 1006.8
20260506185535 60 23 5.0 6.0 0.00 0.34 0.29 65 1006.8
20260506184529 60 32 5.0 7.0 0.00 0.34 0.29 63 1006.8
20260506183546 60 38 5.0 7.0 0.00 0.34 0.29 61 1006.8
20260506182523 61 36 3.0 4.0 0.00 0.34 0.29 59 1006.8
20260506181558 61 57 4.0 5.0 0.00 0.34 0.29 57 1006.8
20260506180552 62 20 4.0 4.0 0.00 0.34 0.29 53 1006.8
20260506175533 62 68 3.0 4.0 0.00 0.34 0.29 51 1006.2
20260506174524 63 41 4.0 5.0 0.00 0.34 0.29 49 1005.8
20260506173541 63 29 3.0 5.0 0.00 0.34 0.29 48 1005.8
20260506172020 64 42 3.0 5.0 0.00 0.34 0.29 47 1005.8
20260506171027 65 37 2.0 6.0 0.00 0.34 0.29 46 1005.8
20260506165515 65 38 1.0 2.0 0.00 0.34 0.29 46 1005.8
20260506164545 65 180 0.0 1.0 0.00 0.34 0.29 47 1005.8
20260506163548 65 232 0.0 2.0 0.00 0.34 0.29 46 1005.8
20260506162049 66 39 3.0 7.0 0.00 0.34 0.29 45 1006.8
20260506161023 67 349 6.0 10.0 0.00 0.34 0.29 44 1006.2
20260506160045 68 52 2.0 2.0 0.00 0.34 0.29 43 1005.8
20260506154539 69 45 0.0 2.0 0.00 0.34 0.29 43 1005.8
20260506153526 69 30 2.0 2.0 0.00 0.34 0.29 43 1006.8
20260506152559 68 330 1.0 1.0 0.00 0.34 0.29 43 1006.3
20260506151537 68 299 1.0 2.0 0.00 0.34 0.29 42 1005.8
20260506150527 69 296 1.0 2.0 0.00 0.34 0.29 42 1006.8
20260506145522 69 260 1.0 3.0 0.00 0.34 0.29 41 1006.8
20260506144535 69 225 0.0 0.0 0.00 0.34 0.29 41 1006.8
20260506143555 70 19 1.0 2.0 0.00 0.34 0.29 43 1006.8
20260506142535 70 9 1.0 2.0 0.00 0.34 0.29 42 1006.8
20260506141531 71 312 2.0 3.0 0.00 0.34 0.29 41 1006.8
20260506140518 69 13 1.0 2.0 0.00 0.34 0.29 42 1006.8
20260506135615 69 348 2.0 3.0 0.00 0.34 0.29 42 1006.8
20260506134531 68 285 1.0 2.0 0.00 0.34 0.29 43 1006.8
20260506133551 68 284 2.0 3.0 0.00 0.34 0.29 43 1006.8
20260506132521 68 260 2.0 4.0 0.00 0.34 0.29 43 1006.8
20260506131529 70 225 2.0 4.0 0.00 0.34 0.29 42 1006.8
20260506130545 70 272 3.0 5.0 0.00 0.34 0.29 43 1006.8
20260506125528 69 225 3.0 5.0 0.00 0.34 0.29 43 1006.8
20260506124547 70 216 2.0 4.0 0.00 0.34 0.29 43 1006.8
20260506123553 68 226 3.0 4.0 0.00 0.34 0.29 45 1007.8
20260506122541 66 260 1.0 3.0 0.00 0.34 0.29 46 1007.2
20260506121526 67 237 3.0 5.0 0.00 0.34 0.29 44 1006.8
20260506120523 68 213 3.0 4.0 0.00 0.34 0.29 44 1006.8
20260506115545 69 241 3.0 4.0 0.00 0.34 0.29 44 1006.8
20260506114523 66 239 3.0 6.0 0.00 0.34 0.29 44 1006.8
20260506113558 67 233 3.0 3.0 0.00 0.34 0.29 45 1006.8
20260506112617 67 243 3.0 4.0 0.00 0.34 0.29 45 1006.8
20260506111521 68 233 3.0 4.0 0.00 0.34 0.29 45 1006.8
20260506110523 70 258 3.0 4.0 0.00 0.34 0.29 46 1007.8
20260506105615 68 237 3.0 4.0 0.00 0.34 0.29 46 1007.8
20260506104539 67 261 2.0 3.0 0.00 0.34 0.29 49 1007.8
20260506103559 67 254 2.0 3.0 0.00 0.34 0.29 49 1006.8
20260506102527 68 204 3.0 4.0 0.00 0.34 0.29 48 1006.8
20260506101517 69 231 4.0 5.0 0.00 0.34 0.29 50 1006.8
20260506100143 67 215 4.0 6.0 0.00 0.34 0.29 54 1006.8
20260506095033 66 219 6.0 8.0 0.00 0.34 0.29 55 1006.8
20260506094053 62 189 4.0 6.0 0.00 0.34 0.29 61 1006.8
20260506093056 62 214 3.0 6.0 0.00 0.34 0.29 62 1006.8
20260506092031 61 186 2.0 4.0 0.00 0.34 0.29 66 1006.8
20260506091023 61 212 3.0 3.0 0.00 0.34 0.29 66 1006.8
20260506090048 61 227 3.0 6.0 0.00 0.34 0.29 66 1006.8
20260506085034 62 214 2.0 3.0 0.00 0.34 0.29 66 1006.8
20260506084050 61 229 2.0 3.0 0.00 0.34 0.29 66 1006.8
20260506083045 61 182 2.0 5.0 0.00 0.34 0.29 67 1006.8
20260506082047 60 205 2.0 2.0 0.00 0.34 0.29 66 1006.8
20260506081053 61 228 4.0 8.0 0.00 0.34 0.29 64 1006.8
20260506073030 61 190 3.0 5.0 0.00 0.34 0.29 68 1006.8
20260506072044 60 196 2.0 5.0 0.00 0.34 0.29 70 1006.8
20260506071023 59 256 2.0 6.0 0.00 0.34 0.29 73 1006.8
20260506070117 58 226 2.0 3.0 0.00 0.34 0.29 76 1006.8
20260506062023 56 237 2.0 3.0 0.00 0.34 0.29 81 1006.8
20260506060538 56 210 2.0 2.0 0.00 0.34 0.29 82 1006.8
20260506050517 54 221 1.0 2.0 0.00 0.34 0.29 84 1006.8
20260506044557 54 66 0.0 2.0 0.00 0.34 0.29 82 1005.8